Hlavní strana
METAR-TAF:

METAR-TAF

Letiště :

Duplin County Airport

Kenansville, Severní Karolína, Spojené státy americké

zeměpisná šířka: 35-00-00N, zeměpisná délka: 077-58-54W, výška: 42 m

Aktuální stav počasí

Zpráva byla vytvořena před 30 minutami, v 08:55 UTC
Bezvětří
Teplota 22°C
Vlhkost vzduchu 100%
Tlak 1018 hPa
Viditelnost: 3.2 km
Zataženo ve výšce 200 ft
kouřmo

METAR: KDPL 070855Z AUTO 00000KT 2SM BR OVC002 22/22 A3007 RMK AO2

Čas: 05:25 (09:25 UTC)


TAF: chybějící

Stav a předpovědi počasí z více než 4 000 letišť (zprávy METAR a TAF).

Červené a žluté tečky na mapě představují dostupné meteorologické stanice.

Když kurzor umístíte na tečku, zobrazí se název stanice.

Pak kliknutím zobrazíte stav a předpověď počasí.

Chcete-li změnit mapu, kliknutím na zelené tlačítko se znaménkem +mapu přiblížíte, kliknutím na zelené tlačítko se znaménkem – mapu oddálíte a kliknutím na zelené šipky přejdete na sousední mapy.


METAR-TAF: